Location: Unspecified
(41.5000°N, 0.0000°E)
Time: 11:43:45
(UTC+00:00)

Altair - Visible Passes

Search period start: 05 August 2020 00:00
Search period end: 15 August 2020 00:00
Orbit: 1501 x 1682 km, 47.2° (Epoch: 04 August)

Date Brightness Start Highest point End Pass type
(mag) Time Alt. Az. Time Alt. Az. Time Alt. Az.
05 Aug 9.2 01:07:55 12° SE 01:09:02 12° ESE 01:12:19 10° ESE visible
05 Aug 7.9 03:05:56 22° SSW 03:12:05 49° SE 03:20:53 10° ENE visible
06 Aug 9.3 00:44:08 10° ESE 00:44:08 10° ESE 00:45:30 10° ESE visible
06 Aug 8.0 02:42:09 27° SSW 02:46:59 46° SE 02:55:40 10° ENE visible
07 Aug 8.1 02:18:19 32° S 02:21:53 42° SE 02:30:27 10° ENE visible
07 Aug 7.6 04:16:35 10° WSW 04:26:08 83° NNW 04:35:25 10° ENE visible
08 Aug 8.1 01:54:27 34° SSE 01:56:48 39° SE 02:05:13 10° ENE visible
08 Aug 7.5 03:52:29 14° WSW 04:00:57 87° NNW 04:10:15 10° ENE visible
09 Aug 8.1 01:30:33 35° SSE 01:31:43 36° SE 01:39:58 10° ENE visible
09 Aug 7.5 03:28:34 20° WSW 03:35:47 90° SE 03:45:05 10° ENE visible
10 Aug 8.2 01:06:38 33° SE 01:06:38 33° SE 01:14:40 10° ENE visible
10 Aug 7.4 03:04:38 27° WSW 03:10:36 86° SSE 03:19:56 10° ENE visible
11 Aug 8.4 00:42:39 30° ESE 00:42:39 30° ESE 00:49:23 10° ENE visible
11 Aug 7.4 02:40:40 35° SW 02:45:26 82° SSE 02:54:46 10° ENE visible
12 Aug 8.6 00:18:40 25° ESE 00:18:40 25° ESE 00:24:03 10° ENE visible
12 Aug 7.4 02:16:39 44° SW 02:20:15 78° SSE 02:29:36 10° ENE visible
12 Aug 7.8 04:15:56 10° W 04:25:23 64° N 04:34:34 10° ENE visible
12 Aug 8.8 23:54:38 21° ESE 23:54:38 21° ESE 23:58:41 10° ENE visible
13 Aug 7.4 01:52:37 54° SSW 01:55:06 74° SSE 02:04:26 10° ENE visible
13 Aug 7.8 03:50:38 10° W 04:00:09 65° N 04:09:21 10° ENE visible
13 Aug 9.0 23:30:34 17° E 23:30:34 17° E 23:33:17 10° E visible
14 Aug 7.4 01:28:34 62° S 01:29:57 70° SE 01:39:16 10° ENE visible
14 Aug 7.7 03:26:33 15° W 03:34:55 67° NNW 03:44:09 10° ENE visible
14 Aug 9.2 23:06:29 13° E 23:06:29 13° E 23:07:49 10° E visible
